TimeEDT,TemperatureF,Dew PointF,Humidity,Sea Level PressureIn,VisibilityMPH,Wind Direction,Wind SpeedMPH,Gust SpeedMPH,PrecipitationIn,Events,Conditions,WindDirDegrees,DateUTC
12:53 AM,55.9,53.1,90,30.14,10.0,Calm,Calm,-,N/A,,Partly Cloudy,0,2013-10-15 04:53:00
1:53 AM,57.0,53.1,87,30.13,10.0,Calm,Calm,-,N/A,,Partly Cloudy,0,2013-10-15 05:53:00
2:53 AM,55.0,52.0,89,30.13,10.0,Calm,Calm,-,N/A,,Clear,0,2013-10-15 06:53:00
3:53 AM,55.0,52.0,89,30.13,10.0,Calm,Calm,-,N/A,,Clear,0,2013-10-15 07:53:00
4:28 AM,52.0,50.0,93,30.18,1.8,Calm,Calm,-,N/A,,Clear,0,2013-10-15 08:28:00
4:35 AM,52.0,50.0,93,30.18,2.5,Calm,Calm,-,N/A,,Clear,0,2013-10-15 08:35:00
4:53 AM,53.1,50.0,89,30.12,4.0,Calm,Calm,-,N/A,,Clear,0,2013-10-15 08:53:00
5:53 AM,52.0,50.0,93,30.12,1.2,Calm,Calm,-,N/A,,Partly Cloudy,0,2013-10-15 09:53:00
6:06 AM,52.0,50.0,93,30.17,6.0,Calm,Calm,-,N/A,,Partly Cloudy,0,2013-10-15 10:06:00
6:53 AM,50.0,48.9,96,30.13,6.0,Calm,Calm,-,N/A,,Scattered Clouds,0,2013-10-15 10:53:00
7:53 AM,51.1,48.9,92,30.14,10.0,Calm,Calm,-,N/A,,Mostly Cloudy,0,2013-10-15 11:53:00
8:53 AM,55.0,52.0,89,30.14,10.0,Calm,Calm,-,N/A,,Mostly Cloudy,0,2013-10-15 12:53:00
9:53 AM,59.0,53.1,81,30.13,10.0,ENE,5.8,-,N/A,,Mostly Cloudy,70,2013-10-15 13:53:00
10:53 AM,64.0,53.1,67,30.12,10.0,East,4.6,-,N/A,,Mostly Cloudy,90,2013-10-15 14:53:00
11:53 AM,66.9,52.0,59,30.12,10.0,South,4.6,-,N/A,,Mostly Cloudy,190,2013-10-15 15:53:00
12:53 PM,70.0,52.0,53,30.09,10.0,ESE,5.8,-,N/A,,Mostly Cloudy,120,2013-10-15 16:53:00
1:53 PM,72.0,51.1,48,30.05,10.0,South,4.6,-,N/A,,Mostly Cloudy,170,2013-10-15 17:53:00
2:53 PM,73.9,52.0,46,30.03,10.0,ESE,3.5,-,N/A,,Mostly Cloudy,120,2013-10-15 18:53:00
3:53 PM,73.9,51.1,45,30.01,10.0,Calm,Calm,-,N/A,,Mostly Cloudy,0,2013-10-15 19:53:00
4:53 PM,73.0,53.1,49,30.01,10.0,ESE,3.5,-,N/A,,Mostly Cloudy,120,2013-10-15 20:53:00
5:53 PM,72.0,53.1,51,30.01,10.0,Calm,Calm,-,N/A,,Mostly Cloudy,0,2013-10-15 21:53:00
6:53 PM,69.1,55.9,63,30.01,10.0,Calm,Calm,-,N/A,,Mostly Cloudy,0,2013-10-15 22:53:00
7:53 PM,66.0,55.9,70,30.01,10.0,Calm,Calm,-,N/A,,Mostly Cloudy,0,2013-10-15 23:53:00
8:53 PM,64.0,57.0,78,30.01,10.0,Calm,Calm,-,N/A,,Mostly Cloudy,0,2013-10-16 00:53:00
9:53 PM,63.0,55.9,78,30.03,10.0,Calm,Calm,-,N/A,,Mostly Cloudy,0,2013-10-16 01:53:00
10:53 PM,61.0,55.9,83,30.03,10.0,Calm,Calm,-,N/A,,Mostly Cloudy,0,2013-10-16 02:53:00
11:53 PM,59.0,55.9,90,30.02,10.0,Calm,Calm,-,N/A,,Partly Cloudy,0,2013-10-16 03:53:00